Погода Большой Шантар

Погода Большой Шантар : погода сейчас, прогноз погоды и архив. Всё, что Вы хотите узнать о погоде Большой Шантар!

Хотите узнать прогноз погоды Большой Шантар? Тогда Вам сюда: Погода Большой Шантар

Поиск расширенной информации на нашем сайте:

Другие новости

Новости СМИ2

Главная страница сайта

Новости сайта

03.07.2017

Напоминаем, что на нашем специализированном сайте Метеоцентр.Азия вы можете получить высокодетализированные автоматические прогнозы погоды по пунктам России, СНГ и мира в авиационном формате (включающие направление и скорость ветра, видимость, явления погоды, количество и форму облачности, нижнюю и верхнюю границу облачности).

Рекомендуем: мобильные электрокардиографы

Погода Большой Шантар - сегодня

Время (UTC), дата Ветер
(°,м/с) 
Видим.   Явления Облачность Т
(°С)
Тd
(°С)
f(%) Тe
(°С)
Pmin
(гПа)
dP
(гПа)
Po
(мм)
O2
(г/м3)
Тmin Tmax R s Состояние
почвы
06 16.08.17 220 (ЮЗ) 20000 м  {ливн. осадки, морось}  10/10 300 м 
[St]
+14.2 +13.3 94 +20  1019.4  -0.7  764  290           
09 16.08.17 160 (Ю) 20000 м  {морось}  10/10 300 м 
[St]
+13.8 +13.1 96 +20  1019.1  -0.3  764  290    +16.6  0.6     
12 16.08.17 090 (В) 20000 м  {морось}  10/10 300 м 
[St]
+13.2 +12.6 96 +18  1019.4  0.3  764  291           
15 16.08.17 200 (Ю) 10 км  слаб. морось  10/10 300 м 
[St]
+12.5 +12 97 +17  1019.2  -0.2  764  292           
18 16.08.17 тихо ()   10 км  слаб. морось  10/10 300 м 
[St]
+12.6 +12.1 97 +16  1018.6  -0.6  763  292           
21 16.08.17 тихо ()   20000 м  {морось}  10/10 300 м 
[St]
+12.9 +12.5 97 +17  1018.9  0.3  763  291  +12.3      влажная 
00 17.08.17 250 (З) 20000 м  {морось}  9/9 300 м 
[Sc]
+13.8 +12.2 90 +18  1018.9  763  290           
03 17.08.17 250 (З) 20000 м    8/8 600 м 
[Sc]
+15 +11.1 77 +18  1018.2  -0.7  763  289           
06 17.08.17 190 (Ю) 20000 м    8/6 600 м верхняя 
[Sc|Ci fib]
+15.2 +10.7 74 +18  1017.1  -1  762  289           
09 17.08.17 230 (ЮЗ) 20000 м    3/3 600 м 
[Sc]
+14.5 +11.6 83 +18  1016.1  -1.1  761  289    +16.6       
12 17.08.17 030 (СВ) 20000 м    3/0 верхняя 
[Ci fib]
+9.3 +8.8 97 +10  1016.1  761  295           
15 17.08.17 040 (СВ) 20000 м    ясно 
+4.7 +4.4 98 +4  1015.5  -0.7  761  301           
18 17.08.17 020 (С) 20000 м    3/3 600 м 
[Sc]
+3.6 +3.4 99 +3  1014.9  -0.5  760  302           
21 17.08.17 040 (СВ) 20000 м    8/8 600 м 
[St]
+6.6 +6.3 98 +6  1015.1  -0.1  760  298  +2.3        влажная 
00 18.08.17 240 (ЮЗ) 10 км    10/10 200 м 
[St]
+12.4 +11.7 95 +16  1014.8  -0.2  760  291           
03 18.08.17 230 (ЮЗ) 20000 м    6/3 600 м верхняя 
[Cu hum|Ci fib]
+14.1 +12.2 88 +18  1013.8  -1  760  289           
06 18.08.17 250 (З) 20000 м    8/3 600 м верхняя 
[Sc|Ci sp]
+15.6 +12.6 82 +21  1012.7  -1.1  759  287           
09 18.08.17 210 (ЮЗ) 20000 м    9/0 средняя, верхняя 
[Ac trans|Cs]
+16.2 +12.4 78 +22  1012.2  -0.5  758  286    +16.9       
12 18.08.17 070 (В) 20000 м    10/0 средняя 
[Ac und]
+11.9 +11.2 95 +15  1012.4  -0.5  758  291           
15 18.08.17 040 (СВ) 20000 м    10/0 средняя 
[Ac und]
+13.1 +11.9 92 +18  1011.6  -0.8  758  289           
18 18.08.17 020 (С) 20000 м    9/0 средняя 
[Ac trans]
+13.3 +12.2 93 +19  1010.7  -0.8  757  289           
21 18.08.17 050 (СВ) 20000 м    10/0 средняя 
[Ac und]
+14.7 +13.2 91 +21  1010.7  -0.1  757  287  +10.9        сухая 
00 19.08.17 230 (ЮЗ) 20000 м    8/0 средняя 
[Ac trans]
+17 +13.5 80 +24  1010.7  757  285           
03 19.08.17 220 (ЮЗ) 20000 м    10/8 600 м средняя 
[Sc|Ac As]
+16.9 +13.8 82 +24  1010.4  -0.3  757  284           
06 19.08.17 тихо ()   20000 м    10/10 600 м 
[Sc]
+16.2 +14.1 87 +23  1009.7  -0.7  756  285           
Время (UTC), дата Ветер
(°,м/с) 
Видим.   Явления Облачность Т
(°С)
Тd
(°С)
f(%) Тe
(°С)
Pmin
(гПа)
dP
(гПа)
Po
(мм)
O2
(г/м3)
Тmin Tmax R s Состояние
почвы

Для получения пояснительной информации подведите курсор к названию столбца.

ПОГОДА Большой Шантар - архив

Всё, что Вы хотите узнать о погоде Большой Шантар - удобно и подробно!

Выберите нужную дату (начиная с 1 января 2015* года) и нажмите кнопку "Найти".
Будут отображены архивные сводки погоды по пункту Большой Шантар, начиная с указанной даты.


Отображать данные в формате CSV (для использования в таблицах Excel)


Внимание! Наш архив погоды предназначен исключительно для личного некоммерческого использования в познавательных целях. Если Вам необходимы официальные справки о состоянии погоды (для производственных, юридических, коммерческих и т.п. целей), обращайтесь в органы Росгидромета.

*Примечание: данная дата относится к архиву по метеостанциям СССР (Россия, СНГ, Балтия).
Архив по метеостанциям Зарубежной Европы и Азии (кроме Китая) хранится 10 дней, по другим регионам земного шара (Китай, Африка, Америка, Австралия, Океания) - 1 день.

Большой Шантар - район местоположения метеостанции


Название, широта, долгота, высота метеостанции:
Большой Шантар 54.8°ш. 137.5°д. 21 м над ур. моря [Российская Федерация]

Дополнительная информация

В oтличие oт бoльшинства пoгoдных сайтoв мы публикуем пoдрoбную метеoинфoрмацию в детальнoм прoфессиoнальнoм фoрмате.

Характеристики температуры и влажнoсти вoздуха измеряются на высoте 2 м в тени вдали oт зданий и деревьев.
Скoрoсть ветра измеряется на высoте 10 м (на урoвне рoста челoвека скoрoсть ветра ниже в 1.5-2 раза). Если метеoстанция нахoдится в гoрoде или в лесу, тo скoрoсть ветра занижена на 2-4 м/с пo сравнению с oткрытым местoм. Скoрoсть ветра над акватoриями крупных рек и oзёр, а также на вершинах хoлмoв на 2-5 м/с выше, чем в oбычных услoвиях.
Атмoсфернoе давление в разных тoчках местнoсти мoжет значительнo oтличаться oт давления на метеoстанции, в зависимoсти oт услoвий рельефа (при пoдъёме на 10 м давление пoнижается примернo на 1 мм рт.ст.).